Overview Statistics Trail Chart Weather Telemetry Raw packets
 

This is the latest recevied weather packets stored in our database for station/object KE5QKR. If no packets are shown the sender has not sent any weather packets the latest 10 day(s).

<< 57 58 59 60 61 62 63 >>
Time Temp. Humidity Pressure Rain* Wind** Luminosity Snow
1777594460 21.67° C 99% 1009.7 hPa 0 mm - 3 W/m² -
1777594155 22.22° C 99% 1009.9 hPa 0 mm - 5 W/m² -
1777593853 22.22° C 99% 1009.6 hPa 0 mm - 9 W/m² -
1777593551 22.22° C 99% 1009.4 hPa 0 mm - 9 W/m² -
1777593249 22.22° C 99% 1009.4 hPa 0 mm - 8 W/m² -
1777592949 22.22° C 99% 1009.5 hPa 0 mm - 6 W/m² -
1777592643 22.22° C 99% 1009.6 hPa 0 mm - 5 W/m² -
1777592340 22.22° C 99% 1009.7 hPa 1.27 mm - 4 W/m² -
1777592035 22.22° C 99% 1009.7 hPa 1.27 mm - 5 W/m² -
1777591732 22.22° C 99% 1009.5 hPa 0 mm - 6 W/m² -
1777591428 22.22° C 99% 1009.5 hPa 0 mm - 7 W/m² -
1777591124 22.22° C 99% 1009.8 hPa 0 mm - 9 W/m² -
1777590819 22.22° C 99% 1009.7 hPa 0 mm - 9 W/m² -
1777590516 22.22° C 99% 1010 hPa 0 mm - 9 W/m² -
1777590212 22.22° C 99% 1009.7 hPa 0 mm - 8 W/m² -
1777589910 22.22° C 99% 1009.6 hPa 0 mm - 12 W/m² -
1777589605 22.22° C 99% 1009.7 hPa 0 mm - 17 W/m² -
1777589303 22.22° C 99% 1009 hPa 0 mm - 23 W/m² -
1777589000 22.22° C 99% 1009 hPa 0 mm - 25 W/m² -
1777588696 22.22° C 99% 1009.2 hPa 0 mm - 22 W/m² -
1777588392 22.22° C 99% 1008.9 hPa 0 mm - 28 W/m² -
1777588088 22.78° C 99% 1009.3 hPa 0 mm - 29 W/m² -
1777587784 22.22° C 98% 1008.8 hPa 0 mm - 48 W/m² -
1777587483 22.22° C 98% 1008.8 hPa 0 mm - 33 W/m² -
1777587180 22.78° C 97% 1008.7 hPa 0 mm - 22 W/m² -

* Rain latest hour (hover to see other rain measurements)
** Current wind speed in m/s (hover to see current wind gust speed)